This demonstration page uses our WeatherBlox Daily Observations layout. Learn more.

Left ArrowRight Arrow

39.51506, -84.39828

Hourly Observations for October 1, 2022

Temp ( °F °C ) Dew Point ( °F °C ) Humidity (%) Winds ( mph kmh ) Pressure ( in mb ) Visibility ( mi km ) Precip ( " mm )
12:15 am 00:15 Clear 53 11.7 40 4.2 60 60 N 9 15 30.09 1019 10 16 0.00 0.00
12:35 am 00:35 Clear 52 11.2 40 4.3 62 62 N 9 15 30.09 1019 10 16 0.00 0.00
12:55 am 00:55 Clear 53 11.4 40 4.3 62 62 N 8 13 30.09 1019 10 16 0.00 0.00
1:15 am 01:15 Clear 52 11.1 40 4.3 63 63 N 8 13 30.09 1019 10 16 0.00 0.00
1:35 am 01:35 Clear 52 10.9 39 4.1 63 63 N 8 13 30.08 1019 10 16 0.00 0.00
1:55 am 01:55 Clear 51 10.7 40 4.2 64 64 N 9 15 30.08 1019 10 16 0.00 0.00
2:15 am 02:15 Clear 51 10.6 39 4.1 64 64 N 8 13 30.07 1018 10 16 0.00 0.00
2:35 am 02:35 Clear 51 10.4 39 4.1 65 65 N 6 9 30.08 1019 10 16 0.00 0.00
2:55 am 02:55 Clear 51 10.3 40 4.2 66 66 NNE 6 9 30.08 1019 10 16 0.00 0.00
3:15 am 03:15 Clear 51 10.7 39 4.1 64 64 NNE 8 13 30.07 1018 10 16 0.00 0.00
3:35 am 03:35 Clear 51 10.4 39 4.1 65 65 NNE 7 11 30.07 1018 10 16 0.00 0.00
3:55 am 03:55 Clear 50 10.2 39 4.1 66 66 N 7 11 30.06 1018 10 16 0.00 0.00
4:15 am 04:15 Clear 51 10.5 40 4.2 65 65 N 7 11 30.06 1018 10 16 0.00 0.00
4:35 am 04:35 Clear 50 10.2 40 4.3 67 67 N 6 9 30.05 1018 10 16 0.00 0.00
4:55 am 04:55 Clear 50 10.1 40 4.4 68 68 N 7 11 30.05 1018 10 16 0.00 0.00
5:15 am 05:15 Clear 50 10.1 40 4.5 68 68 N 7 11 30.05 1018 10 16 0.00 0.00
5:35 am 05:35 Clear 50 10.1 40 4.6 69 69 N 8 13 30.05 1018 10 16 0.00 0.00
5:55 am 05:55 Clear 50 10.2 40 4.7 69 69 N 9 15 30.06 1018 10 16 0.00 0.00
6:15 am 06:15 Clear 51 10.3 40 4.7 68 68 N 9 15 30.06 1018 10 16 0.00 0.00
6:35 am 06:35 Clear 50 10.1 41 4.8 70 70 N 8 13 30.07 1018 10 16 0.00 0.00
6:55 am 06:55 Clear 50 10.1 41 4.9 70 70 N 9 15 30.07 1018 10 16 0.00 0.00
7:15 am 07:15 Clear 50 9.8 41 5.1 73 73 N 8 13 30.07 1018 10 16 0.00 0.00
7:35 am 07:35 Sunny 49 9.7 42 5.4 75 75 Calm 30.07 1018 10 16 0.00 0.00
7:55 am 07:55 Sunny 49 9.7 42 5.7 76 76 N 3 6 30.07 1018 10 16 0.00 0.00
8:15 am 08:15 Sunny 51 10.3 43 6 75 75 N 6 9 30.07 1018 10 16 0.00 0.00
8:35 am 08:35 Sunny 51 10.8 43 6.2 73 73 N 8 13 30.08 1019 10 16 0.00 0.00
8:55 am 08:55 Sunny 53 11.6 43 6.2 69 69 N 12 19 30.08 1018 10 16 0.00 0.00
9:15 am 09:15 Sunny 55 12.5 44 6.6 67 67 NNE 13 20 30.07 1018 10 16 0.00 0.00
9:35 am 09:35 Sunny 57 13.7 45 7.1 64 64 N 14 22 30.07 1018 10 16 0.00 0.00
9:55 am 09:55 Sunny 57 13.8 45 7.2 64 64 N 12 19 30.07 1018 10 16 0.00 0.00
10:15 am 10:15 Sunny 57 14 45 7.3 64 64 N 10 17 30.07 1018 10 16 0.00 0.00
10:35 am 10:35 Sunny 60 15.7 47 8.4 62 62 NNW 10 17 30.07 1018 10 16 0.00 0.00
10:55 am 10:55 Sunny 61 15.9 46 7.7 58 58 NNW 9 15 30.07 1018 10 16 0.00 0.00
11:15 am 11:15 Sunny 63 17.1 47 8.1 55 55 NNW 13 20 30.06 1018 10 16 0.00 0.00
11:35 am 11:35 Sunny 64 17.5 39 3.9 40 40 NNE 14 22 30.07 1018 10 16 0.00 0.00
11:55 am 11:55 Sunny 64 17.6 39 4 40 40 N 12 19 30.07 1018 10 16 0.00 0.00
12:15 pm 12:15 Sunny 65 18.5 39 3.7 37 37 NNE 14 22 30.06 1018 10 16 0.00 0.00
12:35 pm 12:35 Sunny 67 19.2 37 2.7 33 33 NNE 18 30 30.06 1018 10 16 0.00 0.00
12:55 pm 12:55 Sunny 68 19.9 39 3.8 35 35 NE 16 26 30.06 1018 10 16 0.00 0.00
1:15 pm 13:15 Sunny 68 20.2 39 3.8 34 34 NNE 15 24 30.06 1018 10 16 0.00 0.00
1:35 pm 13:35 Sunny 69 20.7 40 4.6 35 35 NNE 13 20 30.04 1017 10 16 0.00 0.00
1:55 pm 13:55 Sunny 70 21 42 5.7 37 37 N 12 19 30.04 1017 10 16 0.00 0.00
2:15 pm 14:15 Sunny 71 21.4 43 6.2 37 37 N 17 28 30.03 1017 10 16 0.00 0.00
2:35 pm 14:35 Sunny 71 21.8 45 7.2 39 39 NNE 13 20 30.03 1017 10 16 0.00 0.00
2:55 pm 14:55 Sunny 71 21.6 44 6.6 38 38 N 15 24 30.02 1017 10 16 0.00 0.00
3:15 pm 15:15 Sunny 72 22.3 44 6.9 37 37 NNE 20 31 30.01 1016 10 16 0.00 0.00
3:35 pm 15:35 Sunny 72 22.4 43 6.1 35 35 N 21 33 30.01 1016 10 16 0.00 0.00
3:55 pm 15:55 Sunny 70 21.3 41 4.8 34 34 NNE 13 20 30.01 1016 10 16 0.00 0.00
4:15 pm 16:15 Hazy 70 21 44 6.5 39 39 N 14 22 30.00 1016 4 6 0.00 0.00
4:35 pm 16:35 Sunny 69 20.5 40 4.5 35 35 NNE 16 26 30.00 1016 10 16 0.00 0.00
4:55 pm 16:55 Sunny 68 19.9 40 4.6 37 37 NNE 15 24 30.03 1017 10 16 0.00 0.00
5:15 pm 17:15 Sunny 67 19.2 40 4.3 37 37 NE 20 31 30.03 1017 10 16 0.00 0.00
5:35 pm 17:35 Sunny 65 18.6 39 4.1 38 38 NNE 15 24 30.03 1017 10 16 0.00 0.00
5:55 pm 17:55 Sunny 65 18.2 39 4 39 39 NNE 15 24 30.05 1018 10 16 0.00 0.00
6:15 pm 18:15 Sunny 64 17.8 39 3.9 40 40 NNE 14 22 30.05 1018 10 16 0.00 0.00
6:35 pm 18:35 Sunny 64 17.7 39 4 40 40 NNE 14 22 30.06 1018 10 16 0.00 0.00
6:55 pm 18:55 Sunny 64 17.8 39 4.1 40 40 N 15 24 30.06 1018 10 16 0.00 0.00
7:15 pm 19:15 Sunny 63 17.3 40 4.3 42 42 N 14 22 30.06 1018 10 16 0.00 0.00
7:35 pm 19:35 Clear 63 17.2 40 4.2 42 42 N 14 22 30.06 1018 10 16 0.00 0.00
7:55 pm 19:55 Clear 63 17 40 4.3 43 43 N 13 20 30.07 1018 10 16 0.00 0.00
8:15 pm 20:15 Clear 62 16.7 40 4.4 44 44 N 9 15 30.08 1019 10 16 0.00 0.00
8:35 pm 20:35 Clear 62 16.8 40 4.4 44 44 N 14 22 30.08 1019 10 16 0.00 0.00
8:55 pm 20:55 Clear 62 16.9 39 4 42 42 N 12 19 30.08 1019 10 16 0.00 0.00
9:15 pm 21:15 Clear 62 16.8 38 3.4 41 41 N 12 19 30.08 1019 10 16 0.00 0.00
9:35 pm 21:35 Clear 62 16.6 37 2.7 39 39 NNE 13 20 30.09 1019 10 16 0.00 0.00
9:55 pm 21:55 Clear 62 16.5 36 2.4 39 39 N 10 17 30.09 1019 10 16 0.00 0.00
10:15 pm 22:15 Clear 62 16.4 36 2.2 38 38 N 12 19 30.09 1019 10 16 0.00 0.00
10:35 pm 22:35 Clear 62 16.4 35 1.5 36 36 N 8 13 30.09 1019 10 16 0.00 0.00
10:55 pm 22:55 Clear 62 16.4 33 0.3 33 33 N 10 17 30.09 1019 10 16 0.00 0.00
11:15 pm 23:15 Clear 61 16.1 33 0.4 34 34 N 8 13 30.09 1019 10 16 0.00 0.00
11:35 pm 23:35 Clear 60 15.6 34 1.2 38 38 N 6 9 30.10 1019 10 16 0.00 0.00
11:55 pm 23:55 Clear 60 15.4 37 2.6 42 42 N 12 19 30.10 1019 10 16 0.00 0.00

Powered by AerisWeather